Tracking 19969 objects as of 13-Nov-2019
Live streaming from Space Station
objects crossing your sky now
Track the group of recently launched Starlink satellites

COSMOS 1275 DEB

Track COSMOS 1275 DEB now!
10-day predictions


NORAD ID: 12779
Int'l Code: 1981-053DV
Perigee: 658.6 km
Apogee: 669.6 km
Inclination: 82.6 °
Period: 97.9 minutes
Semi major axis: 7035 km
RCS: 0.0961 m2 (small)
Launch date: June 4, 1981
Source: Commonwealth of Independent States (former USSR) (CIS)
Launch site: PLESETSK MISSILE AND SPACE COMPLEX (PKMTR)

Note: This is SATELLITE DEBRIS
aabbcc
Your satellite tracking list
Your tracking list is empty




NASA's NSSDC Master Catalog

Two Line Element Set (TLE):
1 12779U 81053DV  19316.61219229  .00002211  00000-0  35477-3 0  9990
2 12779  82.5588 262.2775 0007839 318.2055  41.8554 14.71290545980806
Source of the keplerian elements: AFSPC